Fort Worth NAS, TX

10:40 AM CST on November 20, 2017 (GMT -0600)
Fort Worth Naval Air Station Jrb

Weather History for KNFW - September, 2013

Change the Weather History Date:

Wednesday, September 11, 2013

  Actual Average Record
Temperature  
Mean Temperature 87 °F -  
Max Temperature 98 °F 87 °F 100 °F (2000)
Min Temperature 77 °F 69 °F 63 °F (2016)
Cooling Degree Days 22    
Growing Degree Days 37 (Base 50)    
Moisture  
Dew Point 63 °F    
Average Humidity 47    
Maximum Humidity 66    
Minimum Humidity 28    
Precipitation  
Precipitation 0.00 in - - ()
Sea Level Pressure  
Sea Level Pressure 30.06 in    
Wind  
Wind Speed 6 mph (SE)    
Max Wind Speed 15 mph    
Max Gust Speed 25 mph    
Visibility 10 miles    
Events      
Averages and records for this station are not official NWS values.
T = Trace of Precipitation, MM = Missing Value Source: NWS Daily Summary

Daily Weather History Graph

Daily Weather History Graph

Search for Another Location

Airport or City:

Trip Planner

Search our weather history database for the weather conditions in past years. The results will help you decide how hot, cold, wet, or windy it might be!

Date:

Astronomy

Sep. 11, 2013 Rise Set
Actual Time 7:11 AM CDT 7:40 PM CDT
Civil Twilight 6:46 AM CDT 8:05 PM CDT
Nautical Twilight 6:17 AM CDT 8:34 PM CDT
Astronomical Twilight 5:47 AM CDT 9:04 PM CDT
Moon 1:19 PM CDT (9/11) 11:59 PM CDT (9/11)
Length of Visible Light 13h 19m
Length of Day
12h 29m
Waxing Crescent, 39% of the Moon is Illuminated
Sep 11
Waxing Crescent
Sep 12
First Quarter
Sep 19
Full
Sep 26
Last Quarter
Oct 4
New

Hourly Weather History & Observations

Time (CDT) Temp. Heat Index Dew Point Humidity Pressure Visibility Wind Dir Wind Speed Gust Speed Precip Events Conditions
12:52 AM 82.0 °F 82.7 °F 61.0 °F 49% 30.07 in 10.0 mi SSE 8.1 mph - N/A   Clear
1:52 AM 81.0 °F 82.2 °F 63.0 °F 54% 30.08 in 10.0 mi SSE 5.8 mph - N/A   Clear
2:52 AM 79.0 °F - 63.0 °F 58% 30.08 in 10.0 mi South 3.5 mph - N/A   Clear
3:52 AM 79.0 °F - 63.0 °F 58% 30.08 in 10.0 mi South 3.5 mph - N/A   Clear
4:52 AM 78.1 °F - 64.0 °F 62% 30.08 in 10.0 mi SSE 4.6 mph - N/A   Clear
5:52 AM 78.1 °F - 64.0 °F 62% 30.08 in 10.0 mi Calm Calm - N/A   Clear
6:52 AM 77.0 °F - 64.0 °F 64% 30.09 in 10.0 mi Calm Calm - N/A   Partly Cloudy
7:52 AM 77.0 °F - 64.9 °F 66% 30.10 in 10.0 mi Calm Calm - N/A   Scattered Clouds
8:52 AM 80.1 °F 82.1 °F 66.0 °F 62% 30.11 in 10.0 mi Calm Calm - N/A   Partly Cloudy
9:52 AM 84.0 °F 87.0 °F 68.0 °F 58% 30.13 in 10.0 mi Variable 3.5 mph - N/A   Clear
10:52 AM 88.0 °F 89.6 °F 64.9 °F 46% 30.13 in 10.0 mi Variable 4.6 mph - N/A   Partly Cloudy
11:52 AM 91.0 °F 92.6 °F 64.0 °F 41% 30.12 in 10.0 mi South 10.4 mph - N/A   Partly Cloudy
12:52 PM 93.9 °F 95.2 °F 63.0 °F 36% 30.10 in 10.0 mi SSE 13.8 mph 18.4 mph N/A   Partly Cloudy
1:52 PM 95.2 °F 96.8 °F 63.3 °F 35% 30.08 in 10.0 mi SE 11.5 mph 19.6 mph N/A   Mostly Cloudy
2:52 PM 97.0 °F 97.8 °F 62.1 °F 31% 30.04 in 10.0 mi ESE 13.8 mph - N/A   Mostly Cloudy
3:52 PM 97.0 °F 96.5 °F 59.0 °F 28% 30.02 in 10.0 mi ESE 5.8 mph - N/A   Mostly Cloudy
4:52 PM 97.0 °F 96.9 °F 60.1 °F 29% 30.00 in 10.0 mi SE 6.9 mph - N/A   Mostly Cloudy
5:52 PM 96.1 °F 96.0 °F 60.1 °F 30% 29.99 in 10.0 mi East 15.0 mph 25.3 mph N/A   Mostly Cloudy
6:52 PM 91.9 °F 91.8 °F 61.0 °F 35% 30.00 in 10.0 mi East 9.2 mph - N/A   Mostly Cloudy
7:52 PM 90.0 °F 90.3 °F 62.1 °F 39% 30.01 in 10.0 mi East 5.8 mph - N/A   Scattered Clouds
8:52 PM 88.0 °F 88.7 °F 63.0 °F 43% 30.01 in 10.0 mi East 4.6 mph - N/A   Scattered Clouds
9:52 PM 87.1 °F 88.3 °F 64.0 °F 46% 30.04 in 10.0 mi ESE 5.8 mph - N/A   Partly Cloudy
10:52 PM 86.0 °F 86.8 °F 63.0 °F 46% 30.04 in 10.0 mi ESE 6.9 mph - N/A   Clear
11:52 PM 84.9 °F 86.1 °F 64.0 °F 49% 30.04 in 10.0 mi ESE 5.8 mph - N/A   Partly Cloudy